[[{"header":{"parameterUnit":"m.s-1","parameterCategory":1,"la1":30.2991,"la2":30.254,"lo1":-89.0895,"lo2":-89.0444,"dy":0.0017,"dx":0.0017,"nx":28,"ny":28,"refTime":"2024-11-24T03:00:00:Z","depth":0,"parameterNumber":2,"parameterNumberName":"U-component_of_WINDS"},"data":[0,0,0,0,0,0,0,0,0,0,0,0,0,0,0,0,0,0,0,0,0,0,0,0,0,0,0,0,0,0,0,0,0,0,0,0,0,0,0,0,0,0,0,0,0,0,0,0,0,0,0,0,0,0,0,0,0,0,1.1775,1.1776,0,1.1875,1.1876,1.1877,1.1963,1.1964,1.1965,1.1966,1.2071,1.2073,1.2075,0,0,0,0,0,0,0,0,0,0,0,0,0,1.1664,1.1665,1.1775,1.1777,1.1778,1.1875,1.1876,1.1878,1.1963,1.1964,1.1965,1.1966,1.207,1.2073,1.2075,0,0,0,0,0,0,0,0,0,0,0,0,0,1.1733,1.1666,1.1775,1.1832,1.1838,1.1875,1.1876,1.1878,1.1962,1.1964,1.1965,1.1967,1.207,1.2073,1.2075,1.2065,0,0,1.2084,1.2085,0,0,0,0,0,0,0,0,1.1729,1.1737,1.1822,1.1828,1.1835,1.1908,1.1876,1.1941,1.1962,1.1915,1.1966,1.1967,1.2016,1.2023,1.2039,1.207,1.2074,1.2084,1.2086,1.2087,1.2088,0,0,0,0,0,0,0,1.1724,1.1733,1.1815,1.1823,1.1831,1.1854,1.1865,1.1888,1.1957,1.1919,1.1926,1.1936,1.202,1.2036,1.2042,1.2076,1.2084,1.2087,1.2089,1.209,1.2106,1.2105,0,0,0,0,0,0,1.171,1.1728,1.1812,1.1818,1.1784,1.1855,1.1868,1.1883,1.1956,1.1969,1.1935,1.194,1.203,1.2039,1.2046,1.204,1.2087,1.209,1.2092,1.2107,1.2106,1.2104,0,0,0,0,0,0,1.1707,1.1716,1.1808,1.1775,1.1788,1.1855,1.1872,1.1884,1.1901,1.1968,1.1981,1.1939,1.2032,1.2042,1.206,1.2045,1.2091,1.2094,1.2109,1.2107,1.2105,1.2027,0,0,0,0,0,0,1.1703,1.1715,1.171,1.1774,1.179,1.1818,1.1871,1.1885,1.1905,1.1912,1.1975,1.1987,1.2034,1.2055,1.2063,1.205,1.2096,1.2111,1.2108,1.2106,1.2032,1.2023,1.2016,0,0,0,0,0,1.1699,1.1684,1.1709,1.1719,1.1785,1.1817,1.1826,1.1879,1.1903,1.19,1.1944,1.1985,1.2045,1.2056,1.2066,1.2053,1.2112,1.2109,1.2106,1.2035,1.2025,1.2016,0,0,0,0,0,0,1.1618,1.1694,1.1722,1.1728,1.1765,1.1831,1.1829,1.1866,1.1898,1.1904,1.1969,1.1983,1.1994,1.2026,1.2036,1.2049,1.2084,1.2083,1.2027,1.2018,1.201,1.2003,1.2099,0,0,0,0,0,1.16,1.1618,1.1684,1.1683,1.17,1.1761,1.1777,1.1814,1.1856,1.1873,1.1918,1.1958,1.1987,1.2004,1.2034,1.2037,1.2053,1.2033,1.2025,1.2018,1.2017,1.2023,1.2016,1.2095,1.2095,1.2095,0,0,1.1564,1.1608,1.1616,1.1668,1.1701,1.172,1.1774,1.1791,1.1807,1.1876,1.1896,1.193,1.198,1.1991,1.1998,1.2018,1.1999,1.2015,1.2009,1.2011,1.2019,1.2012,1.2005,1.2093,1.2093,1.2094,0,0,1.151,1.1544,1.1547,1.158,1.1629,1.167,1.1671,1.1732,1.1757,1.1778,1.1831,1.1851,1.1898,1.1932,1.1955,1.1915,1.1955,1.1923,1.1882,1.1887,1.1881,1.1876,1.1863,1.1858,1.1921,1.1921,1.1921,0,1.1459,1.1489,1.1544,1.1559,1.1581,1.1644,1.165,1.1679,1.1736,1.1751,1.1772,1.1833,1.1871,1.1892,1.1882,1.1898,1.1903,1.1916,1.1877,1.1872,1.1868,1.1857,1.1852,1.1917,1.1917,1.1918,1.1918,0,1.1425,1.1445,1.1442,1.1495,1.1517,1.1527,1.1586,1.1602,1.1638,1.1677,1.1699,1.1747,1.1788,1.1796,1.1831,1.1822,1.1833,1.1864,1.1902,1.1856,1.1847,1.1843,1.1911,1.1912,1.1914,1.1915,0,0,1.1321,1.1406,1.1404,1.143,1.149,1.1508,1.1521,1.1561,1.1574,1.1612,1.1627,1.1666,1.1696,1.1722,1.1762,1.1767,1.1734,1.1799,1.1801,1.1786,1.173,1.1706,1.17,1.1761,1.176,1.176,1.1726,0,1.1277,1.1304,1.1355,1.1367,1.1387,1.1448,1.1461,1.15,1.1537,1.1562,1.1604,1.1631,1.1667,1.1684,1.1691,1.1736,1.1724,1.174,1.1777,1.1778,1.1764,1.1695,1.167,1.1636,1.1723,1.1722,1.1722,0,1.1229,1.1263,1.1276,1.1337,1.1347,1.1357,1.1399,1.142,1.1467,1.1494,1.1524,1.1569,1.1589,1.1622,1.1652,1.1661,1.168,1.1705,1.1705,1.1711,1.1747,1.1701,1.1626,1.1622,1.1716,1.1717,1.1717,0,1.1154,1.1202,1.1217,1.1237,1.1308,1.1314,1.1344,1.1392,1.1414,1.145,1.1465,1.1504,1.1526,1.1556,1.1611,1.163,1.1635,1.1673,1.166,1.1659,1.1659,1.1659,1.1588,1.1669,1.1669,1.1669,1.1669,0,1.1099,1.1105,1.1184,1.1193,1.1203,1.1263,1.1271,1.1307,1.135,1.1368,1.1424,1.1441,1.1511,1.1537,1.158,1.1599,1.1608,1.1632,1.1644,1.1628,1.1625,1.1642,1.1646,1.1668,1.1668,1.1668,1.1669,0,1.1017,1.107,1.109,1.1156,1.1173,1.1177,1.1234,1.1246,1.1287,1.131,1.1319,1.1384,1.1418,1.1475,1.1525,1.1554,1.1566,1.1584,1.1549,1.1556,1.1541,1.1542,1.148,1.1475,1.1557,1.1556,1.1555,0,1.0979,1.0985,1.1052,1.1068,1.1096,1.1121,1.1143,1.1203,1.1224,1.1279,1.1285,1.1322,1.1356,1.1406,1.1459,1.1498,1.1519,1.1495,1.1526,1.151,1.1521,1.1521,1.1523,1.1488,1.1487,1.1486,1.1485,0,1.0908,1.0934,1.0963,1.1001,1.1026,1.1059,1.1096,1.1106,1.1175,1.1196,1.123,1.1256,1.1307,1.1345,1.1391,1.1425,1.1467,1.1474,1.1474,1.1458,1.1439,1.1451,1.1531,1.1476,1.1477,1.1477,1.1478,1.1478,1.0848,1.0857,1.0905,1.0936,1.097,1.1003,1.1019,1.1062,1.1091,1.1136,1.1171,1.1203,1.1252,1.1319,1.1351,1.1378,1.1397,1.1396,1.1396,1.1395,1.139,1.1433,1.1387,1.1387,1.1388,1.1388,1.1388,0,1.0781,1.0815,1.0843,1.0892,1.0917,1.0953,1.0996,1.1015,1.1042,1.1084,1.1116,1.1156,1.1193,1.1249,1.1291,1.1303,1.1323,1.1312,1.1312,1.132,1.1369,1.1366,1.1295,1.1295,1.1295,1.1295,1.1295,1.1295,1.0748,1.0766,1.0798,1.0834,1.087,1.0901,1.0922,1.0954,1.0988,1.1031,1.1061,1.1097,1.1146,1.1192,1.1228,1.1244,1.1258,1.124,1.1262,1.1307,1.1316,1.1324,1.1322,1.1242,1.1242,1.1211,1.1211,1.121]},{"header":{"parameterUnit":"m.s-1","parameterCategory":1,"la1":30.2991,"la2":30.254,"lo1":-89.0895,"lo2":-89.0444,"dy":0.0017,"dx":0.0017,"nx":28,"ny":28,"refTime":"2024-11-24T03:00:00:Z","depth":0,"parameterNumber":3,"parameterNumberName":"V-component_of_WINDS"},"data":[0,0,0,0,0,0,0,0,0,0,0,0,0,0,0,0,0,0,0,0,0,0,0,0,0,0,0,0,0,0,0,0,0,0,0,0,0,0,0,0,0,0,0,0,0,0,0,0,0,0,0,0,0,0,0,0,0,0,3.6387,3.6386,0,3.6301,3.63,3.6299,3.6277,3.6278,3.6278,3.6279,3.6184,3.6181,3.6178,0,0,0,0,0,0,0,0,0,0,0,0,0,3.6528,3.6525,3.6387,3.6386,3.6385,3.6301,3.63,3.6299,3.6277,3.6278,3.6278,3.6279,3.6185,3.6182,3.6178,0,0,0,0,0,0,0,0,0,0,0,0,0,3.6457,3.6524,3.6387,3.6364,3.6361,3.6302,3.63,3.6299,3.6277,3.6278,3.6278,3.6279,3.6186,3.6182,3.6177,3.6133,0,0,3.6164,3.6162,0,0,0,0,0,0,0,0,3.6461,3.6451,3.6368,3.6366,3.6362,3.6301,3.6315,3.6243,3.6277,3.6309,3.6279,3.628,3.6222,3.6214,3.6196,3.6129,3.6125,3.6163,3.616,3.6158,3.6157,0,0,0,0,0,0,0,3.6466,3.6455,3.6353,3.6367,3.6363,3.6356,3.6347,3.6301,3.6261,3.6306,3.6304,3.6295,3.622,3.6201,3.6194,3.6123,3.6163,3.6159,3.6156,3.6155,3.6017,3.6017,0,0,0,0,0,0,3.6475,3.6459,3.6356,3.635,3.6415,3.6353,3.6343,3.632,3.6262,3.6254,3.6294,3.6294,3.6208,3.6199,3.6191,3.6137,3.6159,3.6154,3.6152,3.6018,3.6017,3.6016,0,0,0,0,0,0,3.6478,3.6466,3.6359,3.6404,3.639,3.635,3.6324,3.6317,3.6298,3.6253,3.6245,3.6282,3.6208,3.6197,3.6149,3.6133,3.6152,3.6148,3.6019,3.6018,3.6017,3.6027,0,0,0,0,0,0,3.6482,3.6467,3.6451,3.6404,3.6388,3.632,3.6323,3.6315,3.6291,3.629,3.6239,3.6232,3.6208,3.6156,3.6144,3.6127,3.6145,3.6021,3.6019,3.6017,3.6028,3.6027,3.6025,0,0,0,0,0,3.6488,3.6455,3.645,3.6438,3.6367,3.6319,3.6309,3.6285,3.629,3.6272,3.6244,3.6233,3.6137,3.6151,3.6138,3.6119,3.6021,3.6019,3.6017,3.6029,3.6027,3.6025,0,0,0,0,0,0,3.6498,3.6448,3.6442,3.6394,3.6361,3.6315,3.6292,3.6283,3.6246,3.6246,3.6215,3.6204,3.6158,3.6134,3.615,3.6075,3.6079,3.6074,3.6092,3.609,3.6088,3.6095,3.6141,0,0,0,0,0,3.6495,3.6462,3.642,3.6381,3.6366,3.6332,3.631,3.6295,3.6258,3.6244,3.6211,3.6175,3.6137,3.6112,3.6074,3.6025,3.6014,3.6006,3.6004,3.6003,3.5999,3.5974,3.597,3.6009,3.6009,3.6009,0,0,3.6487,3.6457,3.6437,3.6383,3.6356,3.6322,3.632,3.6283,3.6257,3.6237,3.6191,3.6166,3.6124,3.6076,3.6053,3.6054,3.5987,3.6001,3.6,3.5997,3.5971,3.5968,3.5964,3.6008,3.6008,3.6009,0,0,3.6457,3.643,3.6397,3.6371,3.6331,3.6309,3.6301,3.6257,3.6241,3.6195,3.618,3.6148,3.6082,3.6053,3.603,3.5993,3.5982,3.5981,3.5973,3.5948,3.5945,3.5942,3.593,3.5926,3.5977,3.5977,3.5978,0,3.6452,3.6402,3.638,3.6345,3.6322,3.6306,3.6272,3.6246,3.6195,3.6179,3.6181,3.6101,3.6071,3.6017,3.6009,3.599,3.598,3.5986,3.5948,3.5945,3.5941,3.593,3.5925,3.5978,3.5978,3.5978,3.5978,0,3.6399,3.6365,3.6342,3.6297,3.6271,3.6236,3.6208,3.6185,3.6173,3.6151,3.6105,3.6069,3.6024,3.601,3.5996,3.5955,3.5957,3.5954,3.5958,3.5938,3.5927,3.5922,3.5978,3.5978,3.5978,3.5978,0,0,3.637,3.6317,3.6308,3.6289,3.6246,3.6218,3.6183,3.6143,3.6124,3.6089,3.6059,3.6006,3.6004,3.5978,3.596,3.5939,3.5914,3.5938,3.5937,3.5936,3.5868,3.5872,3.5867,3.5907,3.5906,3.5905,3.5872,0,3.6335,3.6275,3.6256,3.6205,3.6173,3.6159,3.6129,3.6098,3.6078,3.6047,3.6023,3.5987,3.5986,3.5971,3.5949,3.5922,3.59,3.5924,3.5878,3.5877,3.589,3.586,3.5863,3.5833,3.5868,3.5867,3.5866,0,3.6285,3.6255,3.6202,3.6166,3.6152,3.6125,3.6088,3.6059,3.6025,3.6011,3.5984,3.5969,3.5932,3.5939,3.5888,3.5904,3.5885,3.5869,3.5867,3.5862,3.587,3.5855,3.5823,3.5819,3.5859,3.5859,3.586,0,3.6272,3.6217,3.6179,3.6162,3.6118,3.61,3.6081,3.6047,3.6026,3.5993,3.5978,3.594,3.592,3.589,3.5866,3.5873,3.5817,3.5821,3.5805,3.5805,3.5793,3.5794,3.5758,3.578,3.578,3.578,3.578,0,3.6235,3.6203,3.6173,3.6149,3.6114,3.6092,3.6057,3.6036,3.6007,3.5979,3.5963,3.5937,3.5906,3.5876,3.5856,3.5817,3.5807,3.5795,3.579,3.5797,3.5799,3.5783,3.5785,3.5779,3.5779,3.5779,3.5779,0,3.6213,3.6191,3.6149,3.6113,3.6103,3.6078,3.6046,3.6023,3.6003,3.5968,3.5958,3.5926,3.589,3.5863,3.5814,3.5802,3.576,3.5755,3.5773,3.5771,3.5756,3.5758,3.5709,3.5702,3.5728,3.5728,3.5728,0,3.6191,3.6167,3.613,3.6111,3.6093,3.6062,3.6041,3.6019,3.5997,3.5959,3.594,3.5903,3.5873,3.5815,3.5786,3.575,3.5744,3.573,3.5738,3.5747,3.5745,3.5747,3.5745,3.5728,3.5728,3.5728,3.5728,0,3.6155,3.6146,3.6118,3.6086,3.6062,3.6035,3.6008,3.5993,3.5966,3.5942,3.5907,3.5884,3.5837,3.5801,3.5762,3.574,3.573,3.5726,3.572,3.5726,3.5738,3.5733,3.577,3.5727,3.5727,3.5727,3.5727,3.5727,3.6133,3.6112,3.6084,3.6053,3.6031,3.6007,3.5984,3.5963,3.5934,3.5896,3.5884,3.5848,3.5816,3.5764,3.5742,3.5712,3.5712,3.5704,3.5702,3.57,3.5701,3.5744,3.5705,3.5705,3.5705,3.5705,3.5705,0,3.6097,3.6079,3.6051,3.6016,3.5992,3.5987,3.5957,3.5937,3.5906,3.5879,3.585,3.581,3.5776,3.5746,3.5711,3.5693,3.5687,3.5684,3.5685,3.5681,3.5703,3.5712,3.569,3.569,3.569,3.569,3.569,3.569,3.6076,3.6041,3.603,3.5985,3.5966,3.5933,3.5916,3.5894,3.5872,3.583,3.5802,3.5784,3.5756,3.5719,3.5687,3.5679,3.5667,3.5665,3.5656,3.5677,3.5679,3.5681,3.5689,3.5663,3.5663,3.5637,3.5637,3.5637]}]]